Weather History for KMCD - October, 2013

Change the Weather History Date:

Monday, October 14, 2013

  Actual Average Record
Temperature  
Mean Temperature 48 °F -  
Max Temperature 57 °F 52 °F 73 °F (2008)
Min Temperature 39 °F 41 °F 28 °F (2002)
Degree Days  
Heating Degree Days 17    
Moisture  
Dew Point 40 °F    
Average Humidity 75    
Maximum Humidity 97    
Minimum Humidity 43    
Precipitation  
Precipitation 0.00 in - - ()
Sea Level Pressure  
Sea Level Pressure 30.38 in    
Wind  
Wind Speed 5 mph (NW)    
Max Wind Speed 8 mph    
Max Gust Speed -    
Visibility 10 miles    
Events      
Averages and records for this station are not official NWS values.
T = Trace of Precipitation, MM = Missing Value Source: NWS Daily Summary

Daily Weather History Graph

Daily Weather History Graph

Search for Another Location

Airport or City:

Trip Planner

Search our weather history database for the weather conditions in past years. The results will help you decide how hot, cold, wet, or windy it might be!

Date:

Astronomy

Oct. 14, 2013 Rise Set
Actual Time 7:54 AM EDT 6:53 PM EDT
Civil Twilight 7:24 AM EDT 7:23 PM EDT
Nautical Twilight 6:49 AM EDT 7:58 PM EDT
Astronomical Twilight 6:15 AM EDT 8:32 PM EDT
Moon 4:34 PM EDT (10/14) 2:56 AM EDT (10/14)
Length of Visible Light 11h 59m
Length of Day
10h 59m
Waxing Gibbous, 79% of the Moon is Illuminated
Oct 14
Waxing Gibbous
Oct 18
Full
Oct 26
Last Quarter
Nov 3
New
Nov 10
First Quarter

Hourly Weather History & Observations

Time (EDT) Temp. Windchill Dew Point Humidity Pressure Visibility Wind Dir Wind Speed Gust Speed Precip Events Conditions
12:18 AM 46.8 °F - 39.4 °F 75% 30.39 in 10.0 mi NW 6.9 mph - N/A   Clear
12:39 AM 46.4 °F 42.9 °F 39.2 °F 76% 30.39 in 10.0 mi NW 6.9 mph - N/A   Clear
12:58 AM 46.0 °F 43.1 °F 39.9 °F 79% 30.39 in 10.0 mi NW 5.8 mph - N/A   Clear
1:18 AM 45.7 °F 42.7 °F 39.6 °F 79% 30.40 in 10.0 mi NW 5.8 mph - N/A   Clear
1:39 AM 45.9 °F 42.9 °F 39.2 °F 78% 30.40 in 10.0 mi NW 5.8 mph - N/A   Clear
1:58 AM 45.7 °F 42.7 °F 39.2 °F 78% 30.40 in 10.0 mi NW 5.8 mph - N/A   Clear
2:18 AM 45.3 °F 41.6 °F 39.2 °F 79% 30.41 in 10.0 mi NW 6.9 mph - N/A   Clear
2:39 AM 45.0 °F 41.8 °F 39.2 °F 80% 30.41 in 10.0 mi NW 5.8 mph - N/A   Clear
2:58 AM 44.8 °F 41.6 °F 39.4 °F 81% 30.41 in 10.0 mi NW 5.8 mph - N/A   Clear
3:18 AM 44.2 °F 41.0 °F 39.4 °F 83% 30.42 in 10.0 mi NW 5.8 mph - N/A   Clear
3:39 AM 44.1 °F 40.8 °F 39.2 °F 83% 30.42 in 10.0 mi NW 5.8 mph - N/A   Clear
3:58 AM 43.3 °F 39.9 °F 39.2 °F 85% 30.42 in 10.0 mi NW 5.8 mph - N/A   Clear
4:19 AM 41.9 °F 39.0 °F 38.1 °F 86% 30.42 in 10.0 mi WNW 4.6 mph - N/A   Clear
4:38 AM 40.8 °F 37.8 °F 38.5 °F 91% 30.42 in 10.0 mi NW 4.6 mph - N/A   Clear
4:58 AM 39.9 °F 36.7 °F 38.1 °F 93% 30.42 in 10.0 mi NW 4.6 mph - N/A   Clear
5:19 AM 39.6 °F 36.3 °F 38.3 °F 95% 30.42 in 10.0 mi WNW 4.6 mph - N/A   Clear
5:38 AM 39.6 °F 36.3 °F 38.3 °F 95% 30.43 in 10.0 mi WNW 4.6 mph - N/A   Clear
5:58 AM 39.6 °F 37.4 °F 38.3 °F 95% 30.43 in 10.0 mi WNW 3.5 mph - N/A   Clear
6:19 AM 39.6 °F 36.3 °F 38.5 °F 96% 30.43 in 10.0 mi WNW 4.6 mph - N/A   Clear
6:38 AM 39.4 °F 36.1 °F 38.3 °F 96% 30.43 in 10.0 mi WNW 4.6 mph - N/A   Clear
6:58 AM 39.6 °F 36.3 °F 38.7 °F 97% 30.43 in 10.0 mi WNW 4.6 mph - N/A   Clear
7:19 AM 39.7 °F 34.9 °F 38.8 °F 97% 30.43 in 10.0 mi West 6.9 mph - N/A   Clear
7:38 AM 41.4 °F 37.6 °F 39.7 °F 94% 30.43 in 10.0 mi WNW 5.8 mph - N/A   Clear
7:58 AM 43.7 °F 40.3 °F 40.1 °F 87% 30.43 in 10.0 mi WNW 5.8 mph - N/A   Clear
8:19 AM 45.5 °F 42.5 °F 39.6 °F 80% 30.43 in 10.0 mi WNW 5.8 mph - N/A   Clear
8:38 AM 45.9 °F 43.6 °F 40.3 °F 81% 30.43 in 10.0 mi WNW 4.6 mph - N/A   Clear
8:58 AM 47.5 °F - 40.8 °F 78% 30.43 in 10.0 mi WNW 3.5 mph - N/A   Clear
9:19 AM 48.4 °F - 40.5 °F 74% 30.43 in 10.0 mi WNW 3.5 mph - N/A   Clear
9:38 AM 49.5 °F - 40.8 °F 72% 30.43 in 10.0 mi WNW 4.6 mph - N/A   Clear
9:59 AM 50.7 °F - 41.2 °F 70% 30.44 in 10.0 mi WNW 4.6 mph - N/A   Clear
10:18 AM 51.3 °F - 40.8 °F 67% 30.45 in 10.0 mi WNW 5.8 mph - N/A   Clear
10:38 AM 52.2 °F - 41.5 °F 67% 30.44 in 10.0 mi NW 5.8 mph - N/A   Clear
10:58 AM 52.7 °F - 40.5 °F 63% 30.43 in 10.0 mi NW 5.8 mph - N/A   Clear
11:44 AM 53.4 °F - 41.4 °F 64% 30.42 in 10.0 mi NW 3.5 mph - N/A   Clear
11:58 AM 54.7 °F - 40.8 °F 60% 30.42 in 10.0 mi North 5.8 mph - N/A   Clear
12:18 PM 54.0 °F - 40.6 °F 61% 30.43 in 10.0 mi NW 5.8 mph - N/A   Clear
12:39 PM 55.8 °F - 39.4 °F 54% 30.42 in 10.0 mi NNE 4.6 mph - N/A   Clear
12:58 PM 55.8 °F - 39.6 °F 55% 30.41 in 10.0 mi NNW 3.5 mph - N/A   Clear
1:18 PM 55.9 °F - 37.0 °F 49% 30.41 in 10.0 mi NNE 4.6 mph - N/A   Clear
1:39 PM 56.7 °F - 34.7 °F 44% 30.41 in 10.0 mi NNW 3.5 mph - N/A   Clear
1:58 PM 56.5 °F - 34.3 °F 43% 30.41 in 10.0 mi West 3.5 mph - N/A   Clear
2:18 PM 57.0 °F - 36.7 °F 47% 30.41 in 10.0 mi West 4.6 mph - N/A   Clear
2:39 PM 54.9 °F - 39.2 °F 56% 30.40 in 10.0 mi West 5.8 mph - N/A   Clear
2:58 PM 55.0 °F - 39.6 °F 56% 30.40 in 10.0 mi WSW 6.9 mph - N/A   Clear
3:18 PM 54.9 °F - 40.3 °F 58% 30.39 in 10.0 mi WSW 6.9 mph - N/A   Clear
3:39 PM 54.9 °F - 39.9 °F 57% 30.37 in 10.0 mi SW 8.1 mph - N/A   Clear
3:58 PM 55.0 °F - 41.2 °F 60% 30.36 in 10.0 mi West 6.9 mph - N/A   Clear
4:19 PM 55.0 °F - 40.5 °F 58% 30.35 in 10.0 mi SSW 4.6 mph - N/A   Clear
4:39 PM 54.9 °F - 40.5 °F 58% 30.35 in 10.0 mi Calm Calm - N/A   Clear
4:58 PM 54.1 °F - 39.6 °F 58% 30.34 in 10.0 mi Calm Calm - N/A   Clear
5:19 PM 54.0 °F - 39.9 °F 59% 30.34 in 10.0 mi WSW 3.5 mph - N/A   Clear
5:39 PM 54.7 °F - 39.4 °F 56% 30.34 in 10.0 mi West 4.6 mph - N/A   Clear
5:58 PM 53.6 °F - 39.4 °F 59% 30.34 in 10.0 mi West 5.8 mph - N/A   Clear
6:19 PM 53.2 °F - 39.6 °F 60% 30.34 in 10.0 mi West 4.6 mph - N/A   Clear
6:39 PM 52.0 °F - 40.3 °F 64% 30.34 in 10.0 mi West 3.5 mph - N/A   Clear
6:58 PM 49.3 °F - 41.2 °F 74% 30.33 in 10.0 mi Calm Calm - N/A   Clear
7:19 PM 47.7 °F - 41.0 °F 78% 30.33 in 10.0 mi NW 3.5 mph - N/A   Clear
7:39 PM 46.4 °F 43.5 °F 40.6 °F 80% 30.34 in 10.0 mi NNW 5.8 mph - N/A   Clear
7:58 PM 45.9 °F 43.6 °F 40.3 °F 81% 30.33 in 10.0 mi North 4.6 mph - N/A   Clear
8:19 PM 45.5 °F 44.2 °F 40.3 °F 82% 30.33 in 10.0 mi North 3.5 mph - N/A   Clear
8:39 PM 45.5 °F 44.2 °F 40.6 °F 83% 30.32 in 10.0 mi North 3.5 mph - N/A   Clear
8:59 PM 45.0 °F 43.5 °F 40.5 °F 84% 30.32 in 10.0 mi North 3.5 mph - N/A   Clear
9:19 PM 44.1 °F 41.5 °F 40.3 °F 87% 30.31 in 10.0 mi NNE 4.6 mph - N/A   Clear
9:39 PM 44.2 °F 41.8 °F 40.5 °F 87% 30.30 in 10.0 mi NNE 4.6 mph - N/A   Clear
9:59 PM 44.6 °F - 41.0 °F 87% 30.31 in 10.0 mi Calm Calm - N/A   Clear
10:19 PM 43.7 °F 41.1 °F 41.2 °F 91% 30.30 in 10.0 mi East 4.6 mph - N/A   Clear
10:39 PM 43.9 °F 40.5 °F 41.4 °F 91% 30.30 in 10.0 mi East 5.8 mph - N/A   Clear
10:59 PM 44.1 °F 41.5 °F 41.9 °F 92% 30.30 in 10.0 mi SE 4.6 mph - N/A   Clear
11:19 PM 44.1 °F 41.5 °F 41.9 °F 92% 30.30 in 10.0 mi SE 4.6 mph - N/A   Clear
11:39 PM 43.3 °F 41.7 °F 41.5 °F 93% 30.30 in 10.0 mi SSE 3.5 mph - N/A   Clear
11:58 PM 43.3 °F 41.7 °F 41.5 °F 93% 30.30 in 10.0 mi SSE 3.5 mph - N/A   Clear